| time (UTC) | temp C | wind direction | speed KPH | gust KPH | rain 1hr cm | rain 24hr cm | rain mn cm | humidity % | barometer mb |
| 20260507160647 | 12 | 125 | 0.0 | 3.2 | 0.00 | 0.05 | 0.05 | 57 | 1015.3 |
| 20260507155645 | 12 | 174 | 0.0 | 3.2 | 0.00 | 0.05 | 0.05 | 59 | 1015.2 |
| 20260507154644 | 12 | 152 | 0.0 | 4.8 | 0.00 | 0.05 | 0.05 | 59 | 1015.0 |
| 20260507153644 | 12 | 162 | 0.0 | 3.2 | 0.00 | 0.05 | 0.05 | 60 | 1015.4 |
| 20260507152642 | 12 | 164 | 0.0 | 1.6 | 0.00 | 0.05 | 0.05 | 60 | 1015.7 |
| 20260507151640 | 12 | 123 | 1.6 | 4.8 | 0.00 | 0.05 | 0.05 | 58 | 1015.6 |
| 20260507150639 | 12 | 145 | 0.0 | 3.2 | 0.00 | 0.05 | 0.05 | 60 | 1015.6 |
| 20260507145637 | 12 | 138 | 0.0 | 3.2 | 0.00 | 0.05 | 0.05 | 62 | 1015.8 |
| 20260507144637 | 12 | 136 | 0.0 | 0.0 | 0.00 | 0.05 | 0.05 | 62 | 1016.1 |
| 20260507143637 | 11 | 123 | 0.0 | 3.2 | 0.00 | 0.05 | 0.05 | 61 | 1016.1 |
| 20260507142636 | 11 | 139 | 0.0 | 1.6 | 0.00 | 0.05 | 0.05 | 63 | 1015.9 |
| 20260507141635 | 11 | 72 | 1.6 | 3.2 | 0.00 | 0.05 | 0.05 | 64 | 1016.2 |
| 20260507140634 | 11 | 136 | 0.0 | 1.6 | 0.00 | 0.05 | 0.05 | 65 | 1016.1 |
| 20260507135634 | 11 | 129 | 3.2 | 4.8 | 0.00 | 0.05 | 0.05 | 65 | 1016.4 |
| 20260507134633 | 11 | 62 | 3.2 | 4.8 | 0.00 | 0.05 | 0.05 | 65 | 1016.8 |
| 20260507133631 | 11 | 82 | 3.2 | 3.2 | 0.00 | 0.05 | 0.05 | 68 | 1016.4 |
| 20260507132631 | 11 | 165 | 0.0 | 3.2 | 0.00 | 0.05 | 0.05 | 66 | 1016.5 |
| 20260507131630 | 11 | 140 | 0.0 | 1.6 | 0.00 | 0.05 | 0.05 | 70 | 1016.2 |
| 20260507130630 | 11 | 131 | 3.2 | 3.2 | 0.00 | 0.05 | 0.05 | 71 | 1016.3 |
| 20260507125627 | 11 | 160 | 0.0 | 4.8 | 0.00 | 0.05 | 0.05 | 71 | 1016.1 |
| 20260507124625 | 11 | 139 | 0.0 | 1.6 | 0.00 | 0.05 | 0.05 | 72 | 1016.1 |
| 20260507123622 | 11 | 139 | 0.0 | 3.2 | 0.00 | 0.05 | 0.05 | 71 | 1016.2 |
| 20260507122619 | 11 | 140 | 0.0 | 1.6 | 0.00 | 0.05 | 0.05 | 71 | 1016.2 |
| 20260507121617 | 11 | 149 | 0.0 | 1.6 | 0.00 | 0.05 | 0.05 | 73 | 1016.3 |
| 20260507120615 | 11 | 109 | 3.2 | 4.8 | 0.00 | 0.05 | 0.05 | 73 | 1016.1 |
| 20260507115615 | 11 | 95 | 3.2 | 3.2 | 0.00 | 0.05 | 0.05 | 74 | 1016.2 |
| 20260507114612 | 11 | 95 | 1.6 | 3.2 | 0.00 | 0.05 | 0.05 | 76 | 1016.0 |
| 20260507113607 | 12 | 135 | 1.6 | 3.2 | 0.00 | 0.05 | 0.05 | 75 | 1015.8 |
| 20260507112602 | 12 | 83 | 1.6 | 9.7 | 0.00 | 0.05 | 0.05 | 74 | 1015.7 |
| 20260507111601 | 11 | 135 | 1.6 | 4.8 | 0.00 | 0.05 | 0.05 | 74 | 1015.6 |
| 20260507110600 | 11 | 129 | 3.2 | 3.2 | 0.00 | 0.05 | 0.05 | 78 | 1015.7 |
| 20260507105559 | 11 | 139 | 0.0 | 3.2 | 0.00 | 0.05 | 0.05 | 81 | 1015.6 |
| 20260507104559 | 11 | 142 | 0.0 | 0.0 | 0.00 | 0.05 | 0.05 | 81 | 1015.6 |
| 20260507103557 | 11 | 138 | 1.6 | 3.2 | 0.00 | 0.05 | 0.05 | 80 | 1015.5 |
| 20260507102556 | 11 | 135 | 0.0 | 1.6 | 0.00 | 0.05 | 0.05 | 81 | 1015.4 |
| 20260507101554 | 12 | 160 | 0.0 | 1.6 | 0.00 | 0.05 | 0.05 | 81 | 1015.2 |
| 20260507100554 | 12 | 143 | 0.0 | 3.2 | 0.00 | 0.05 | 0.05 | 80 | 1015.2 |
| 20260507095549 | 12 | 134 | 0.0 | 3.2 | 0.00 | 0.05 | 0.05 | 81 | 1015.2 |
| 20260507094548 | 12 | 123 | 1.6 | 3.2 | 0.00 | 0.05 | 0.05 | 80 | 1015.2 |
| 20260507093548 | 12 | 138 | 0.0 | 3.2 | 0.00 | 0.05 | 0.05 | 81 | 1015.3 |
| 20260507092543 | 12 | 174 | 1.6 | 4.8 | 0.00 | 0.05 | 0.05 | 81 | 1015.1 |
| 20260507091543 | 12 | 66 | 4.8 | 8.0 | 0.00 | 0.05 | 0.05 | 83 | 1014.9 |
| 20260507090540 | 12 | 132 | 1.6 | 1.6 | 0.00 | 0.05 | 0.05 | 84 | 1014.9 |
| 20260507085540 | 12 | 138 | 0.0 | 8.0 | 0.00 | 0.05 | 0.05 | 84 | 1015.0 |
| 20260507084539 | 12 | 145 | 0.0 | 1.6 | 0.00 | 0.05 | 0.05 | 85 | 1015.0 |
| 20260507083538 | 12 | 120 | 1.6 | 3.2 | 0.00 | 0.05 | 0.05 | 86 | 1014.8 |
| 20260507082537 | 12 | 137 | 1.6 | 3.2 | 0.00 | 0.05 | 0.05 | 87 | 1015.1 |
| 20260507081536 | 12 | 135 | 0.0 | 3.2 | 0.00 | 0.05 | 0.05 | 88 | 1014.8 |
| 20260507080535 | 12 | 95 | 3.2 | 4.8 | 0.00 | 0.05 | 0.05 | 88 | 1014.5 |
| 20260507075533 | 12 | 128 | 0.0 | 1.6 | 0.00 | 0.05 | 0.05 | 88 | 1014.1 |
| 20260507074532 | 12 | 109 | 1.6 | 3.2 | 0.00 | 0.05 | 0.05 | 88 | 1014.1 |
| 20260507073532 | 12 | 145 | 0.0 | 3.2 | 0.00 | 0.05 | 0.05 | 87 | 1014.3 |
| 20260507072533 | 12 | 118 | 1.6 | 3.2 | 0.00 | 0.05 | 0.05 | 88 | 1013.9 |
| 20260507071527 | 12 | 134 | 0.0 | 3.2 | 0.00 | 0.05 | 0.05 | 88 | 1013.9 |
| 20260507070526 | 12 | 147 | 0.0 | 3.2 | 0.00 | 0.05 | 0.05 | 88 | 1014.1 |
| 20260507065525 | 12 | 124 | 1.6 | 4.8 | 0.00 | 0.05 | 0.05 | 88 | 1014.3 |
| 20260507064521 | 12 | 143 | 0.0 | 1.6 | 0.00 | 0.05 | 0.05 | 90 | 1014.3 |
| 20260507063521 | 12 | 115 | 1.6 | 3.2 | 0.00 | 0.05 | 0.05 | 91 | 1014.3 |
| 20260507062521 | 12 | 138 | 1.6 | 4.8 | 0.00 | 0.05 | 0.05 | 93 | 1014.5 |
| 20260507061516 | 12 | 159 | 0.0 | 0.0 | 0.00 | 0.05 | 0.05 | 94 | 1014.5 |
| 20260507060512 | 12 | 131 | 1.6 | 4.8 | 0.00 | 0.05 | 0.05 | 94 | 1014.0 |
| 20260507055509 | 12 | 110 | 1.6 | 4.8 | 0.00 | 0.05 | 0.05 | 95 | 1014.3 |
| 20260507054507 | 13 | 125 | 1.6 | 1.6 | 0.00 | 0.05 | 0.05 | 95 | 1014.1 |
| 20260507053507 | 13 | 98 | 0.0 | 1.6 | 0.00 | 0.05 | 0.05 | 94 | 1014.3 |
| 20260507052503 | 13 | 144 | 0.0 | 3.2 | 0.13 | 0.05 | 0.05 | 93 | 1014.4 |
| 20260507051503 | 13 | 141 | 0.0 | 1.6 | 0.00 | 0.03 | 0.03 | 92 | 1014.4 |
| 20260507050501 | 13 | 160 | 0.0 | 4.8 | 0.00 | 0.03 | 0.03 | 92 | 1014.0 |
| 20260507045501 | 13 | 134 | 1.6 | 3.2 | 0.00 | 0.03 | 0.03 | 91 | 1014.5 |
| 20260507044500 | 13 | 142 | 1.6 | 3.2 | 0.00 | 0.03 | 0.03 | 91 | 1014.1 |
| 20260507043458 | 14 | 139 | 1.6 | 3.2 | 0.18 | 0.03 | 0.03 | 89 | 1014.4 |
| 20260507042458 | 15 | 88 | 1.6 | 9.7 | 0.00 | 0.00 | 0.00 | 87 | 1014.6 |
| 20260507041456 | 15 | 81 | 4.8 | 9.7 | 0.00 | 0.00 | 0.00 | 86 | 1014.4 |
| 20260507040455 | 15 | 157 | 1.6 | 3.2 | 0.00 | 0.00 | 0.00 | 87 | 1014.1 |
| 20260507035453 | 15 | 129 | 3.2 | 3.2 | 0.00 | 0.86 | 0.86 | 86 | 1014.0 |
| 20260507034453 | 15 | 145 | 0.0 | 3.2 | 0.00 | 0.86 | 0.86 | 86 | 1014.0 |
| 20260507033449 | 15 | 138 | 1.6 | 8.0 | 0.00 | 0.86 | 0.86 | 84 | 1013.9 |
| 20260507032448 | 16 | 169 | 0.0 | 3.2 | 0.00 | 0.86 | 0.86 | 80 | 1014.3 |
| 20260507031446 | 16 | 141 | 0.0 | 9.7 | 0.00 | 0.86 | 0.86 | 80 | 1014.4 |
| 20260507030446 | 16 | 122 | 1.6 | 9.7 | 0.00 | 0.86 | 0.86 | 81 | 1013.9 |
| 20260507025446 | 16 | 153 | 0.0 | 4.8 | 0.00 | 0.86 | 0.86 | 84 | 1013.2 |
| 20260507024442 | 16 | 137 | 1.6 | 9.7 | 0.00 | 0.86 | 0.86 | 85 | 1013.1 |
| 20260507023440 | 17 | 147 | 0.0 | 8.0 | 0.00 | 0.86 | 0.86 | 88 | 1013.6 |
| 20260507022435 | 17 | 107 | 1.6 | 4.8 | 0.00 | 0.86 | 0.86 | 88 | 1013.0 |
| 20260507021431 | 17 | 89 | 3.2 | 3.2 | 0.00 | 0.86 | 0.86 | 88 | 1013.3 |
| 20260507020431 | 17 | 144 | 0.0 | 4.8 | 0.00 | 0.86 | 0.86 | 88 | 1012.9 |
| 20260507015427 | 17 | 79 | 4.8 | 4.8 | 0.00 | 0.86 | 0.86 | 88 | 1013.0 |
| 20260507014426 | 18 | 150 | 1.6 | 1.6 | 0.00 | 0.86 | 0.86 | 89 | 1012.8 |
| 20260507013425 | 18 | 113 | 0.0 | 3.2 | 0.00 | 0.86 | 0.86 | 89 | 1012.8 |
| 20260507012425 | 18 | 149 | 0.0 | 3.2 | 0.00 | 0.86 | 0.86 | 91 | 1013.0 |
| 20260507011425 | 18 | 133 | 0.0 | 4.8 | 0.00 | 0.86 | 0.86 | 93 | 1013.2 |
| 20260507010420 | 18 | 180 | 1.6 | 4.8 | 0.00 | 0.86 | 0.86 | 94 | 1012.9 |
| 20260507005420 | 18 | 140 | 0.0 | 1.6 | 0.00 | 0.86 | 0.86 | 94 | 1013.0 |
| 20260507004420 | 18 | 168 | 0.0 | 0.0 | 0.00 | 0.86 | 0.86 | 94 | 1012.7 |
| 20260507003418 | 18 | 168 | 0.0 | 0.0 | 0.00 | 0.86 | 0.86 | 93 | 1012.8 |
| 20260507002416 | 18 | 168 | 0.0 | 0.0 | 0.00 | 0.86 | 0.86 | 93 | 1012.8 |
| 20260507001416 | 18 | 168 | 0.0 | 0.0 | 0.00 | 0.86 | 0.86 | 91 | 1012.7 |
| 20260507000414 | 19 | 168 | 0.0 | 0.0 | 0.00 | 0.86 | 0.86 | 90 | 1012.4 |
| 20260506235414 | 19 | 168 | 0.0 | 0.0 | 0.00 | 0.86 | 0.86 | 89 | 1012.6 |
| 20260506234413 | 19 | 168 | 0.0 | 0.0 | 0.00 | 0.86 | 0.86 | 88 | 1012.5 |
| 20260506233413 | 19 | 168 | 0.0 | 0.0 | 0.00 | 0.86 | 0.86 | 86 | 1012.2 |
| 20260506232412 | 20 | 168 | 0.0 | 0.0 | 0.00 | 0.86 | 0.86 | 85 | 1011.9 |
| 20260506231411 | 20 | 168 | 0.0 | 0.0 | 0.00 | 0.86 | 0.86 | 84 | 1011.9 |
| 20260506230411 | 20 | 168 | 0.0 | 1.6 | 0.00 | 0.86 | 0.86 | 84 | 1011.6 |
| 20260506225410 | 20 | 186 | 0.0 | 0.0 | 0.00 | 0.86 | 0.86 | 84 | 1011.8 |
| 20260506224405 | 20 | 172 | 0.0 | 0.0 | 0.00 | 0.86 | 0.86 | 83 | 1011.6 |
| 20260506223402 | 20 | 214 | 1.6 | 3.2 | 0.00 | 0.86 | 0.86 | 83 | 1011.4 |
| 20260506222401 | 20 | 166 | 0.0 | 1.6 | 0.00 | 0.86 | 0.86 | 84 | 1011.6 |
| 20260506221356 | 20 | 149 | 0.0 | 1.6 | 0.00 | 0.86 | 0.86 | 83 | 1011.5 |
| 20260506220355 | 20 | 178 | 0.0 | 1.6 | 0.00 | 0.86 | 0.86 | 83 | 1011.4 |
| 20260506215353 | 20 | 171 | 1.6 | 1.6 | 0.00 | 0.86 | 0.86 | 83 | 1011.5 |
| 20260506214352 | 20 | 180 | 0.0 | 3.2 | 0.00 | 0.86 | 0.86 | 83 | 1011.5 |
| 20260506213348 | 20 | 157 | 3.2 | 3.2 | 0.00 | 0.86 | 0.86 | 83 | 1011.5 |
| 20260506212346 | 20 | 175 | 1.6 | 1.6 | 0.00 | 0.86 | 0.86 | 83 | 1011.3 |
| 20260506211344 | 20 | 169 | 4.8 | 8.0 | 0.00 | 0.86 | 0.86 | 84 | 1011.4 |
| 20260506210344 | 20 | 179 | 1.6 | 3.2 | 0.00 | 0.86 | 0.86 | 83 | 1011.4 |
| 20260506205343 | 20 | 195 | 3.2 | 4.8 | 0.00 | 0.86 | 0.86 | 83 | 1011.1 |
| 20260506204343 | 20 | 202 | 3.2 | 3.2 | 0.00 | 0.86 | 0.86 | 83 | 1010.9 |
| 20260506203343 | 20 | 155 | 1.6 | 3.2 | 0.00 | 0.86 | 0.86 | 84 | 1011.1 |
| 20260506202343 | 20 | 170 | 1.6 | 3.2 | 0.00 | 0.86 | 0.86 | 83 | 1010.9 |
| 20260506201342 | 20 | 163 | 0.0 | 4.8 | 0.00 | 0.86 | 0.86 | 84 | 1011.1 |
| 20260506200339 | 19 | 185 | 3.2 | 3.2 | 0.00 | 0.86 | 0.86 | 85 | 1011.2 |
| 20260506195338 | 19 | 179 | 3.2 | 4.8 | 0.00 | 0.86 | 0.86 | 85 | 1011.2 |
| 20260506194337 | 19 | 154 | 3.2 | 4.8 | 0.00 | 0.86 | 0.86 | 85 | 1011.3 |
| 20260506193336 | 19 | 222 | 3.2 | 8.0 | 0.00 | 0.86 | 0.86 | 84 | 1011.4 |
| 20260506192335 | 19 | 214 | 4.8 | 4.8 | 0.00 | 0.86 | 0.86 | 85 | 1011.1 |
| 20260506191334 | 19 | 156 | 1.6 | 3.2 | 0.00 | 0.86 | 0.86 | 85 | 1011.5 |
| 20260506190333 | 18 | 181 | 3.2 | 4.8 | 0.00 | 0.86 | 0.86 | 85 | 1011.5 |
| 20260506185333 | 18 | 176 | 1.6 | 3.2 | 0.00 | 0.86 | 0.86 | 87 | 1011.6 |
| 20260506184334 | 18 | 175 | 1.6 | 4.8 | 0.00 | 0.86 | 0.86 | 87 | 1011.9 |
| 20260506183332 | 18 | 172 | 1.6 | 3.2 | 0.00 | 0.86 | 0.86 | 87 | 1011.7 |
| 20260506182332 | 18 | 183 | 1.6 | 3.2 | 0.00 | 0.86 | 0.86 | 87 | 1011.8 |
| 20260506181328 | 18 | 200 | 1.6 | 4.8 | 0.00 | 0.86 | 0.86 | 87 | 1011.9 |
| 20260506180327 | 18 | 188 | 1.6 | 3.2 | 0.00 | 0.86 | 0.86 | 87 | 1012.2 |
| 20260506175326 | 18 | 185 | 1.6 | 3.2 | 0.00 | 0.86 | 0.86 | 88 | 1012.0 |
| 20260506174326 | 17 | 167 | 1.6 | 8.0 | 0.00 | 0.86 | 0.86 | 88 | 1012.1 |
| 20260506173326 | 17 | 154 | 1.6 | 12.9 | 0.00 | 0.86 | 0.86 | 90 | 1012.1 |
| 20260506172326 | 17 | 160 | 3.2 | 3.2 | 0.00 | 0.86 | 0.86 | 92 | 1012.4 |
| 20260506171326 | 16 | 175 | 1.6 | 4.8 | 0.00 | 0.86 | 0.86 | 93 | 1012.2 |
| 20260506170326 | 16 | 167 | 6.4 | 8.0 | 0.00 | 0.86 | 0.86 | 95 | 1012.3 |
| 20260506165322 | 16 | 163 | 1.6 | 4.8 | 0.00 | 0.86 | 0.86 | 96 | 1012.1 |
| 20260506164321 | 16 | 202 | 4.8 | 8.0 | 0.00 | 0.86 | 0.86 | 97 | 1012.3 |
| 20260506163319 | 16 | 140 | 1.6 | 3.2 | 0.00 | 0.86 | 0.86 | 98 | 1012.4 |
| 20260506162319 | 16 | 171 | 1.6 | 4.8 | 0.00 | 0.86 | 0.86 | 98 | 1012.3 |
| 20260506161319 | 16 | 157 | 1.6 | 4.8 | 0.00 | 0.86 | 0.86 | 99 | 1012.4 |